Erie, PA

1:53 PM EST on November 15, 2019 (GMT -0500)
Erie International

Weather History for KERI - September, 2019

Change the Weather History Date:

Sunday, September 8, 2019

  Actual Average Record
Temperature  
Mean Temperature 64 °F 67 °F  
Max Temperature 70 °F 75 °F 92 °F (1959)
Min Temperature 57 °F 58 °F 45 °F (1957)
Degree Days  
Heating Degree Days 2 2  
Month to date heating degree days 5 10  
Since 1 July heating degree days 6 28  
Cooling Degree Days 0 3  
Month to date cooling degree days 26 30  
Year to date cooling degree days 716 588  
Growing Degree Days 14 (Base 50)    
Moisture  
Dew Point 55 °F    
Average Humidity 72    
Maximum Humidity 90    
Minimum Humidity 55    
Precipitation  
Precipitation 0.01 in 0.14 in 2.33 in (1942)
Month to date precipitation 1.31 1.07  
Year to date precipitation 27.63 26.90  
Snow  
Snow 0.00 in 0.00 in - ()
Month to date snowfall 0.0 0.0  
Since 1 July snowfall 0.0 0.0  
Since 1 September snowfall 0.0 0.0  
Snow Depth 0.00 in    
Sea Level Pressure  
Sea Level Pressure 30.09 in    
Wind  
Wind Speed 4 mph ()    
Max Wind Speed 10 mph    
Max Gust Speed 15 mph    
Visibility 9.9 miles    
Events Rain    
T = Trace of Precipitation, MM = Missing Value Source: Averaged Metar Reports

Daily Weather History Graph

Daily Weather History Graph

Search for Another Location

Airport or City:

Astronomy

Sep. 08, 2019 Rise Set
Actual Time 6:53 AM EDT 7:42 PM EDT
Civil Twilight 6:24 AM EDT 8:11 PM EDT
Nautical Twilight 5:51 AM EDT 8:44 PM EDT
Astronomical Twilight 5:16 AM EDT 9:19 PM EDT
Moon 4:55 PM EDT (9/8) 1:26 AM EDT (9/8)
Length of Visible Light 13h 46m
Length of Day
12h 49m
Waxing Gibbous, 75% of the Moon is Illuminated
Sep 8
Waxing Gibbous
Sep 14
Full
Sep 21
Last Quarter
Sep 28
New
Oct 5
First Quarter

Hourly Weather History & Observations

Time (EDT) Temp. Dew Point Humidity Pressure Visibility Wind Dir Wind Speed Gust Speed Precip Events Conditions
12:51 AM 64.9 °F 57.9 °F 78% 29.97 in 7.0 mi SW 6.9 mph - 0.00 in Rain Light Rain
1:51 AM 66.9 °F 57.0 °F 70% 29.98 in 10.0 mi North 5.8 mph - 0.01 in   Mostly Cloudy
2:51 AM 64.9 °F 57.9 °F 78% 29.98 in 10.0 mi SSE 3.5 mph - N/A   Clear
3:51 AM 63.0 °F 57.9 °F 84% 29.99 in 10.0 mi South 4.6 mph - N/A   Overcast
4:51 AM 63.0 °F 57.9 °F 84% 29.99 in 10.0 mi South 3.5 mph - N/A   Overcast
5:33 AM 62.1 °F 57.9 °F 86% 30.01 in 10.0 mi Calm Calm - N/A   Overcast
5:51 AM 62.1 °F 57.9 °F 86% 30.02 in 10.0 mi Calm Calm - N/A   Overcast
6:28 AM 61.0 °F 57.0 °F 87% 30.04 in 10.0 mi Calm Calm - N/A   Scattered Clouds
6:51 AM 60.1 °F 57.0 °F 90% 30.05 in 10.0 mi Calm Calm - N/A   Clear
7:51 AM 60.1 °F 55.9 °F 86% 30.06 in 10.0 mi Calm Calm - N/A   Clear
8:51 AM 64.9 °F 55.0 °F 70% 30.08 in 10.0 mi NNE 5.8 mph - N/A   Scattered Clouds
9:25 AM 66.0 °F 55.9 °F 70% 30.10 in 10.0 mi North 5.8 mph - N/A   Mostly Cloudy
9:51 AM 68.0 °F 55.9 °F 65% 30.10 in 10.0 mi North 8.1 mph - N/A   Mostly Cloudy
10:51 AM 68.0 °F 54.0 °F 61% 30.11 in 10.0 mi NNE 10.4 mph - N/A   Scattered Clouds
11:51 AM 68.0 °F 52.0 °F 56% 30.12 in 10.0 mi Variable 5.8 mph - N/A   Clear
12:51 PM 70.0 °F 54.0 °F 57% 30.11 in 10.0 mi North 9.2 mph - N/A   Clear
1:51 PM 69.1 °F 54.0 °F 58% 30.12 in 10.0 mi NNE 8.1 mph - N/A   Clear
2:51 PM 68.0 °F 54.0 °F 61% 30.12 in 10.0 mi North 8.1 mph - N/A   Clear
3:51 PM 68.0 °F 54.0 °F 61% 30.13 in 10.0 mi NNW 6.9 mph - N/A   Clear
4:51 PM 66.9 °F 52.0 °F 59% 30.14 in 10.0 mi North 6.9 mph - N/A   Clear
5:51 PM 66.9 °F 51.1 °F 57% 30.14 in 10.0 mi North 5.8 mph - N/A   Clear
6:51 PM 66.0 °F 51.1 °F 59% 30.14 in 10.0 mi NNE 5.8 mph - N/A   Clear
7:51 PM 64.0 °F 51.1 °F 63% 30.16 in 10.0 mi NE 5.8 mph - N/A   Clear
8:51 PM 62.1 °F 52.0 °F 70% 30.17 in 10.0 mi NE 3.5 mph - N/A   Clear
9:51 PM 59.0 °F 52.0 °F 78% 30.18 in 10.0 mi Calm Calm - N/A   Partly Cloudy
10:51 PM 57.9 °F 52.0 °F 81% 30.19 in 10.0 mi Calm Calm - N/A   Scattered Clouds
11:51 PM 57.9 °F 52.0 °F 81% 30.20 in 10.0 mi Calm Calm - N/A   Scattered Clouds